Home   Weather   Longyearbyen   Past weeks

Flag for Norway Past Weather in Longyearbyen, Svalbard, Norway — Yesterday and Last 2 Weeks

Now
16 °F

Light snow. Ice fog.


Feels Like: -1 °F
Forecast: 1 / 5 °F
Wind: 20 mph from Northeast

Location: Svalbard Lufthavn

Current Time: Feb 19, 2017 at 3:45:34 pm

Latest Report: Feb 19, 2017 at 2:50 pm


Visibility: 3 mi

Pressure: 28.97 "Hg

Humidity: 86%

Dew Point: 12 °F

Location of LongyearbyenLocation

Past Weather in Longyearbyen — Graph

°F

Longyearbyen Temperature Yesterday

Maximum temperature yesterday: 9 °F (at 11:50 pm)
Minimum temperature yesterday: -6 °F (at 2:50 am)
Average temperature yesterday: 0 °F

High & Low Weather Summary for the Past Weeks

 TemperatureHumidityPressure
High43 °F (Feb 5, 8:50 pm)100% (Feb 5, 1:50 am)30.54 "Hg (Feb 5, 1:50 am)
Low-6 °F (Feb 17, 5:50 pm)46% (Feb 16, 7:50 am)28.85 "Hg (Feb 12, 7:50 am)
Average24 °F73%29.89 "Hg
* Reported Feb 4 1:50 pm — Feb 19 1:50 pm, Longyearbyen, Weather by CustomWeather, © 2017

Note: Actual official high and low records may vary slightly from our data, if they occured in-between our weather recording intervals... More about our weather records

Advertising

Longyearbyen Weather History for the Previous 24 Hours

Scroll right to see more
 ConditionsComfort  
Time TempWeatherWind HumidityBarometerVisibility
1:50 pm
Sun, Feb 19
18 °FLight snow. Partly sunny.28 mph79%28.97 "Hg2 mi
1:20 pm18 °FLight snow. Broken clouds.17 mph79%28.97 "Hg3 mi
12:50 pm18 °FLight snow. Ice fog.10 mph86%29.00 "Hg2 mi
12:20 pm18 °FLight snow. Ice fog.5 mph79%29.00 "Hg2 mi
11:50 am16 °FLight snow. Ice fog.10 mph86%29.03 "Hg3 mi
11:20 am16 °FSnow. Ice fog.17 mph86%29.03 "Hg1 mi
10:50 am16 °FSnow. Ice fog.17 mph86%29.06 "Hg1 mi
10:20 am14 °FSnow. Ice fog.20 mph92%29.09 "Hg1 mi
9:50 am14 °FSnow. Ice fog.20 mph85%29.12 "Hg1 mi
9:20 am14 °FSnow. Ice fog.20 mph85%29.12 "Hg1 mi
8:50 am14 °FSnow. Ice fog.17 mph85%29.15 "Hg1 mi
8:20 am14 °FSnow. Ice fog.14 mph85%29.18 "Hg1 mi
7:50 am14 °FSnow. Ice fog.13 mph85%29.18 "Hg1 mi
6:50 am12 °FLight snow. Ice fog.17 mph85%29.24 "Hg2 mi
4:50 am12 °FLight snow. Passing clouds.16 mph79%29.33 "HgN/A
3:50 am12 °FLight snow. Passing clouds.13 mph79%29.36 "Hg6 mi
2:50 am10 °FLight snow. Passing clouds.15 mph85%29.39 "Hg6 mi
1:50 am10 °FLight snow. Passing clouds.12 mph85%29.45 "Hg3 mi
12:50 am9 °FLight snow. Passing clouds.10 mph85%29.47 "Hg3 mi
11:50 pm
Sat, Feb 18
9 °FLight snow. Passing clouds.8 mph78%29.47 "Hg6 mi
10:50 pm7 °FLight snow. Passing clouds.12 mph78%29.50 "HgN/A
9:50 pm5 °FLight snow. Ice fog.12 mph72%29.53 "HgN/A
9:20 pm5 °FLight snow. Ice fog.13 mph66%29.53 "HgN/A
7:50 pm3 °FPassing clouds.13 mph66%29.56 "HgN/A
6:50 pm3 °FPartly cloudy.14 mph55%29.59 "HgN/A
6:20 pm3 °FLight snow. Partly cloudy.13 mph60%29.59 "HgN/A
5:50 pm1 °FPassing clouds.12 mph65%29.59 "HgN/A
4:50 pm1 °FPartly cloudy.13 mph60%29.62 "HgN/A
3:50 pm0 °FPartly cloudy.15 mph65%29.62 "HgN/A
Weather by CustomWeather, © 2017

See weather overviewHow to use our weather pages